Home   Weather   Cobar   Past weeks

Flag for Australia Past Weather in Cobar, New South Wales, Australia — Yesterday and Last 2 Weeks

Now
55 °F

Cool.


Feels Like: 51 °F
Forecast: 47 / 62 °F
Wind: 14 mph from West

Location: Cobar

Current Time: Aug 18, 2017 at 5:45:37 am

Latest Report: Aug 18, 2017 at 3:00 am


Visibility: N/A

Pressure: 29.98 "Hg

Humidity: 41%

Dew Point: 32 °F

Location of CobarLocation

Past Weather in Cobar — Graph

°F

Cobar Temperature Yesterday

Maximum temperature yesterday: 70 °F (at 3:00 pm)
Minimum temperature yesterday: 44 °F (at 5:00 am)
Average temperature yesterday: 57 °F

High & Low Weather Summary for the Past Weeks

 TemperatureHumidityPressure
High88 °F (Aug 15, 3:00 pm)93% (Aug 3, 11:00 am)30.31 "Hg (Aug 3, 11:00 am)
Low39 °F (Aug 9, 6:00 am)11% (Aug 10, 3:00 pm)29.67 "Hg (Aug 16, 2:00 am)
Average56 °F47%30.02 "Hg
* Reported Aug 3 3:00 am — Aug 18 3:00 am, Cobar. Weather by CustomWeather, © 2017

Note: Actual official high and low records may vary slightly from our data, if they occured in-between our weather recording intervals... More about our weather records

Advertising

Cobar Weather History for the Previous 24 Hours

Scroll right to see more
 ConditionsComfort  
Time TempWeatherWind HumidityBarometerVisibility
3:00 am
Fri, Aug 18
55 °FCool.14 mph41%29.98 "HgN/A
2:00 am55 °FRefreshingly cool.12 mph38%29.97 "HgN/A
12:00 am52 °FCool.8 mph37%29.97 "HgN/A
11:00 pm
Thu, Aug 17
51 °FCool.7 mph36%29.96 "HgN/A
9:00 pm55 °FRefreshingly cool.7 mph31%29.95 "HgN/A
8:00 pm57 °FRefreshingly cool.7 mph29%29.93 "HgN/A
6:00 pm65 °FMild.12 mph21%29.88 "HgN/A
5:00 pm68 °FMild.16 mph19%29.87 "HgN/A
3:00 pm70 °FMild.14 mph20%29.86 "HgN/A
2:00 pm69 °FMild.14 mph22%29.88 "HgN/A
12:00 pm66 °FMild.9 mph23%29.92 "HgN/A
11:00 am65 °FMild.14 mph31%29.95 "HgN/A
9:00 am58 °FRefreshingly cool.7 mph41%29.95 "HgN/A
8:00 am50 °FCool.6 mph52%29.94 "HgN/A
6:00 am44 °FQuite cool.5 mph64%29.89 "HgN/A
5:00 am44 °FQuite cool.5 mph64%29.88 "HgN/A
Weather by CustomWeather, © 2017

See weather overviewHow to use our weather pages